Location: Harriehausen
(51.8469°N, 10.0900°E)
Time: 04:07:44
(UTC+00:00)

Daily predictions for brighter satellites

Satellite Brightness Start Highest point End
(mag) Time Altitude Azimuth Time Altitude Azimuth Time Altitude Azimuth
NOSS 8 (E) 4.4 00:02:07 31° S 00:03:16 51° SE 00:06:10 10° NE
ATLAS CENTAUR R/B 4.2 00:08:23 10° WSW 00:14:45 86° NNW 00:32:45 10° ENE
Cosmos 1825 2.4 00:13:02 23° S 00:15:14 60° E 00:18:57 10° NNE
Cosmos 540 Rocket 4.2 00:15:11 18° SSE 00:18:37 42° ESE 00:23:26 10° NE
Cosmos 990 Rocket 4.2 00:14:07 10° NNW 00:19:10 53° WSW 00:22:37 19° S
Cosmos 1408 2.7 00:19:18 24° SSW 00:21:21 67° WNW 00:25:02 10° N
Cosmos 1437 4.4 00:19:32 10° NNE 00:21:56 24° ENE 00:24:18 10° SE
Cosmos 1242 Rocket 3.2 00:19:37 10° N 00:23:09 51° ENE 00:26:09 14° SSE
Cosmos 1656 Rocket 3.7 00:19:17 10° NNW 00:24:59 74° WSW 00:30:16 12° SSE
Cosmos 2221 2.6 00:20:45 10° N 00:25:04 77° ENE 00:28:24 16° SSE
SL-16 R/B 2.9 00:19:56 11° SW 00:25:11 51° NW 00:30:45 10° NNE
Cosmos 405 Rocket 2.5 00:23:36 24° S 00:25:43 87° ESE 00:29:26 10° NNE
Cosmos 841 Rocket 4.2 00:23:03 17° S 00:26:39 43° ESE 00:31:30 10° NE
Cosmos 2058 3.1 00:24:22 20° S 00:27:03 63° E 00:31:07 10° NNE
USA 229 DEB 3.6 00:22:35 16° SW 00:27:50 78° SE 00:34:48 10° NE
USA 229 3.6 00:22:43 17° SW 00:27:57 77° SE 00:34:54 10° NE
X-37B 1.9 00:28:47 23° SSE 00:28:47 23° SSE 00:30:57 10° ESE
Meteor 2-13 Rocket 4.5 00:23:59 19° SSW 00:28:37 81° WNW 00:34:50 10° N
Cosmos 2237 Rocket 4.1 00:24:07 10° W 00:28:44 25° NW 00:33:23 10° NNE
Cosmos 1898 Rocket 3.8 00:27:23 10° NNW 00:32:28 51° WSW 00:36:10 18° S
Cosmos 1937 Rocket 3.6 00:27:31 10° NNW 00:32:49 68° WSW 00:37:19 14° S
Cosmos 2369 Rocket 2.7 00:29:34 10° NW 00:34:58 43° WSW 00:38:58 17° S
Nadezhda 4 Rocket 4.1 00:30:48 16° S 00:35:44 75° E 00:41:51 10° NNE
NOSS 8 (F) 4.2 00:33:59 19° SW 00:36:02 71° NW 00:39:01 10° NE
NOSS 3-1 (C) 3.6 00:31:10 11° SW 00:36:34 72° NW 00:43:14 10° NE
Aureole 3 Rocket 3.6 00:33:07 10° N 00:36:48 57° ENE 00:41:44 10° SSE
SJ 16-02 3.3 00:35:48 10° WNW 00:38:14 15° W 00:40:01 12° WSW
YAOGAN 11 4.4 00:35:34 19° S 00:38:35 55° W 00:43:02 10° NNW
Cosmos 1356 4.1 00:37:29 20° SW 00:39:28 42° WNW 00:42:43 10° N
FALCON 9 DEB 3.0 00:36:51 10° WNW 00:39:59 79° N 00:43:08 10° E
CREW DRAGON DEMO-1 DEB 2.5 00:40:05 34° SSW 00:40:44 45° SSE 00:43:06 10° E
USA 215 3.7 00:38:06 10° ENE 00:44:34 66° NNW 00:51:02 10° W
NOSS 2-3 (E) 4.0 00:42:31 12° WSW 00:46:26 65° NW 00:51:40 10° NE
NOSS 3-1 (A) 3.4 00:42:41 15° SW 00:47:27 89° NW 00:54:05 10° NE
CZ-4 R/B 3.8 00:45:19 10° NNE 00:49:59 76° WNW 00:53:33 17° SSW
ATLAS 5 CENTAUR R/B 2.9 00:48:04 14° SSE 00:50:33 25° ESE 00:54:08 10° ENE
Helios 1B rocket 3.5 00:46:50 10° NNE 00:50:41 38° E 00:54:08 12° SSE
USA 308 4.2 00:53:26 17° S 00:55:39 25° SE 00:59:09 10° E
Cosmos 1633 3.1 00:53:22 15° SSE 00:56:04 49° E 00:59:30 10° NNE
ADEOS Rocket 3.8 00:49:25 10° SE 00:56:28 62° ENE 01:02:51 10° N
FALCON 9 DEB 2.7 00:53:58 10° WNW 00:57:04 81° SSW 01:00:09 10° ESE
CZ-3B R/B 2.8 00:48:11 10° WNW 00:57:50 70° N 01:00:55 10° E
UNK 3.7 00:54:26 10° SSE 00:59:02 88° ENE 01:03:42 10° NNW
Cosmos 1606 2.7 00:57:19 10° NNW 01:01:09 70° W 01:04:12 15° S
NOSS 8 (H) 4.3 01:00:24 16° SW 01:02:42 66° NW 01:05:40 10° NE
Helios 1A 3.8 01:00:06 17° SSW 01:02:46 35° W 01:06:39 10° NNW
FALCON 9 DEB 2.8 01:00:42 10° WNW 01:03:51 85° S 01:06:58 10° ESE
Cosmos 1570 Rocket 4.3 01:01:44 15° S 01:06:04 61° ESE 01:11:15 10° NNE
SL-16 R/B 2.5 01:00:13 10° SSE 01:06:25 76° WSW 01:12:38 10° NNW
Cosmos 1933 4.1 01:02:34 10° N 01:06:36 53° ENE 01:10:36 10° SSE
FALCON 9 DEB 2.7 01:04:12 10° WNW 01:07:18 76° SSW 01:10:24 10° ESE
Cosmos 372 Rocket 4.1 01:02:38 10° NNW 01:07:47 59° WSW 01:12:56 10° S
Cosmos 1125 Rocket 4.2 01:05:15 10° NNW 01:10:27 58° ENE 01:15:40 10° SE
USA 305 3.8 01:10:31 16° SSW 01:13:22 34° SE 01:17:13 10° ENE
USA 290 2.9 01:11:15 16° S 01:13:37 46° ESE 01:16:44 10° NE
Lacrosse 4 Rocket 1.3 01:10:14 10° NW 01:14:19 65° WSW 01:18:19 10° SSE
Cosmos 1151 Rocket 4.4 01:11:53 10° N 01:15:53 37° ENE 01:19:50 10° SE
CZ-4C R/B 4.3 01:14:48 10° SE 01:16:33 12° ESE 01:18:24 10° E
Meteor 1-28 Rocket 4.4 01:12:59 10° SE 01:16:36 44° ENE 01:20:15 10° N
Cosmos 1092 Rocket 4.0 01:11:05 12° S 01:16:46 89° E 01:22:57 10° N
CENTAUR R/B 4.0 01:10:48 10° NW 01:18:17 54° NNE 01:26:47 10° ESE
Resurs 1-4 Rocket 2.1 01:14:09 10° NNE 01:19:30 87° WNW 01:24:23 13° SSW
Cosmos 2098 Rocket 3.6 01:15:08 14° SSW 01:19:36 56° WNW 01:23:49 10° N
Cosmos 1437 Rocket 4.2 01:16:53 10° NW 01:19:58 23° W 01:22:18 14° SW
Cosmos 1763 Rocket 4.3 01:15:44 11° SW 01:20:24 42° NW 01:25:18 10° NNE
BREEZE-M R/B 3.8 01:18:12 15° SSW 01:20:35 29° SE 01:25:26 10° E
NOSS 5 (C) 4.2 01:17:37 10° NW 01:20:38 68° SW 01:24:09 10° SE
Cosmos 2208 Rocket 4.3 01:16:33 13° S 01:21:26 67° ESE 01:26:52 10° NNE
Meteor 2-19 Rocket 4.5 01:16:27 12° SSW 01:22:09 85° W 01:28:19 10° N
Meteor 1-29 4.0 01:20:17 10° NNE 01:23:33 40° E 01:26:47 10° S
SL-4 R/B 1.6 01:22:43 10° W 01:26:28 83° S 01:29:59 10° E
MINOTAUR 4 R/B 4.0 01:26:59 10° SSE 01:30:31 80° WSW 01:34:04 10° NNW
NPP 3.7 01:25:15 10° NNE 01:30:41 88° WNW 01:35:57 11° SSW
ADEOS II 2.5 01:25:55 10° NNE 01:31:08 60° ESE 01:36:20 10° S
NOSS 2-2 (D) 3.5 01:30:21 14° SSW 01:33:09 51° SE 01:36:52 10° NE
Lacrosse 5 rocket 1.5 01:31:30 10° WNW 01:35:04 63° NNE 01:38:43 10° ESE
USA 306 3.4 01:32:05 13° SW 01:35:39 44° SSE 01:39:43 10° ENE
Cosmos 921 Rocket 3.2 01:32:38 13° SW 01:36:21 60° WNW 01:40:30 10° NNE
FALCON 9 DEB 4.1 01:33:37 10° W 01:36:27 25° SW 01:39:17 10° SSE
Meteor 2-3 Rocket 4.0 01:32:02 10° S 01:37:34 67° E 01:43:07 10° NNE
CZ-2D R/B 2.2 01:33:02 10° N 01:38:13 66° WNW 01:43:15 11° SSW
Cosmos 1943 3.7 01:33:28 10° SW 01:38:57 52° NW 01:44:31 10° NNE
Alouette 2 Rocket 3.7 01:36:08 10° N 01:39:41 60° ENE 01:43:34 10° SSE
IDEFIX/ARIANE 42P 3.5 01:40:26 10° NNE 01:45:30 46° E 01:50:30 10° S
ASTEX 1 4.1 01:41:46 10° SSE 01:46:35 55° ENE 01:51:24 10° N
Cosmos 1603 4.5 01:42:18 10° WSW 01:47:44 45° NW 01:53:11 10° NNE
Cosmos 2151 3.0 01:44:56 10° SSW 01:49:05 67° WNW 01:53:18 10° N
AQUA 3.9 01:45:34 10° N 01:50:20 71° WNW 01:55:04 10° SSW
Cosmos 1825 4.4 01:48:53 10° W 01:51:06 15° WNW 01:53:20 10° NNW
EXPRESS MD2 4.5 01:43:08 10° WSW 01:51:49 58° SSE 01:56:03 10° E
Cosmos 1076 Rocket 4.3 01:49:46 10° SW 01:53:40 37° WNW 01:57:39 10° N
Cosmos 1437 4.3 01:52:07 10° NW 01:54:00 17° W 01:55:51 10° SW
Meteor 1-26 Rocket 4.4 01:48:30 10° NNW 01:54:19 74° W 02:00:16 10° S
Cosmos 1656 4.1 01:57:20 10° NNW 02:03:05 74° ENE 02:08:47 10° SE
X-37B 2.2 02:02:10 10° WSW 02:04:23 18° SSW 02:06:37 10° SSE
CBERS-1 4.3 01:59:43 10° NNE 02:04:53 72° ESE 02:10:01 10° S
IRS-1D 3.6 01:59:56 10° NNE 02:05:07 87° E 02:10:11 10° SSW
BREEZE-M DEB (TANK) 1.9 02:04:26 10° W 02:06:39 34° SSW 02:09:01 10° SE
Cosmos 1812 3.1 02:05:07 10° N 02:08:58 69° ENE 02:12:48 10° SSE
Cosmos 1553 Rocket 4.2 02:02:53 10° NNW 02:09:05 61° W 02:15:11 10° S
SL-16 R/B 4.5 02:07:02 10° WNW 02:10:43 17° NNW 02:14:23 10° NNE
NOSS 2-2 (E) 3.5 02:08:33 10° WSW 02:12:01 61° NW 02:16:05 10° NE
Cosmos 2292 Rocket 2.9 02:10:19 10° SSW 02:13:13 52° WNW 02:16:13 10° N
SL-08 R/B 3.9 02:09:33 10° SSE 02:14:11 62° ENE 02:18:55 10° N
CREW DRAGON DEMO-1 DEB 2.2 02:11:53 10° W 02:14:19 88° S 02:16:47 10° E
Cosmos 1697 Rocket 3.7 02:08:57 10° NNW 02:14:30 53° NE 02:20:01 10° SE
S3M 4.0 02:09:03 10° NNW 02:15:13 78° W 02:21:24 10° S
Cosmos 1782 3.1 02:11:57 10° NNW 02:15:50 50° W 02:19:42 10° S
MSX 4.3 02:12:10 10° NNE 02:17:55 63° ESE 02:23:36 10° S
USA 281 3.3 02:12:09 10° SSE 02:18:41 68° WSW 02:25:16 10° NNW
